This demonstration page uses our WeatherBlox Daily Observations layout. Learn more.

Left ArrowRight Arrow

Hourly Observations for November 12, 2019

Temp ( °F °C ) Dew Point ( °F °C ) Humidity (%) Winds ( mph kmh ) Pressure ( in mb ) Visibility ( mi km ) Precip ( " mm )
12:53 am 00:53 Clear 4 -15.6 -1 -18.3 80 80 WSW 5 7 30.76 1042 10 16 0.00 0.00
1:53 am 01:53 Clear 5 -15 -1 -18.3 76 76 WSW 5 7 30.72 1040 10 16 0.00 0.00
2:53 am 02:53 Clear 3 -16.1 -2 -18.9 79 79 Calm 30.71 1040 10 16 0.00 0.00
3:53 am 03:53 Clear 3 -16.1 -2 -18.9 79 79 SW 3 6 30.69 1039 10 16 0.00 0.00
4:53 am 04:53 Clear 4 -15.6 -1 -18.3 80 80 SW 3 6 30.67 1039 10 16 0.00 0.00
5:53 am 05:53 Clear 4 -15.6 0 -17.8 83 83 S 6 9 30.65 1038 10 16 0.00 0.00
6:53 am 06:53 Clear 6 -14.4 1 -17.2 79 79 SSW 8 13 30.63 1037 10 16 0.00 0.00
7:53 am 07:53 Sunny 8 -13.3 2 -16.7 76 76 S 8 13 30.59 1036 10 16 0.00 0.00
8:53 am 08:53 Sunny 14 -10 6 -14.4 71 71 SSW 9 15 30.57 1035 10 16 0.00 0.00
9:53 am 09:53 Sunny 18 -7.8 8 -13.3 65 65 SSW 15 24 30.54 1034 10 16 0.00 0.00
10:53 am 10:53 Sunny 22 -5.6 11 -11.7 63 63 S 18 30 30.48 1032 10 16 0.00 0.00
11:53 am 11:53 Sunny 25 -3.9 13 -10.6 60 60 S 14 22 30.41 1030 10 16 0.00 0.00
12:53 pm 12:53 Sunny 29 -1.7 14 -10 54 54 S 18 30 30.34 1028 10 16 0.00 0.00
1:53 pm 13:53 Sunny 32 0 16 -8.9 52 52 SSW 21 33 30.28 1025 10 16 0.00 0.00
2:53 pm 14:53 Sunny 33 0.6 15 -9.4 47 47 SSW 18 30 30.25 1024 10 16 0.00 0.00
3:53 pm 15:53 Sunny 34 1.1 15 -9.4 46 46 S 13 20 30.22 1024 10 16 0.00 0.00
4:53 pm 16:53 Sunny 34 1.1 14 -10 44 44 S 13 20 30.19 1022 10 16 0.00 0.00
5:53 pm 17:53 Clear 31 -0.6 13 -10.6 47 47 S 12 19 30.16 1021 10 16 0.00 0.00
6:53 pm 18:53 Clear 29 -1.7 12 -11.1 49 49 S 13 20 30.14 1021 10 16 0.00 0.00
7:53 pm 19:53 Clear 30 -1.1 10 -12.2 43 43 S 15 24 30.11 1020 10 16 0.00 0.00
8:53 pm 20:53 Clear 30 -1.1 9 -12.8 41 41 SSW 17 28 30.08 1019 10 16 0.00 0.00
9:53 pm 21:53 Clear 30 -1.1 9 -12.8 41 41 SSW 14 22 30.05 1018 10 16 0.00 0.00
10:53 pm 22:53 Clear 28 -2.2 9 -12.8 44 44 SSW 16 26 30.01 1016 10 16 0.00 0.00
11:53 pm 23:53 Clear 28 -2.2 9 -12.8 44 44 SSW 13 20 29.98 1015 10 16 0.00 0.00

Powered by AerisWeather